Location: D�nning
(49.2479°N, 12.8491°E)
Time: 15:32:02
(UTC+00:00)

Lacrosse 5 rocket - Pass Details

Date: 18 September 2020
Orbit: 460 x 635 km, 57.0° (Epoch: 23 October)

Event Time Altitude Azimuth Distance (km) Brightness Sun altitude
Rises 19:47:32 0° 286° (WNW) 2,797 6.1 -24.3°
Reaches altitude 10° 19:49:59 10° 297° (WNW) 1,927 5.1 -24.6°
Maximum altitude 19:53:53 30° 360° (N) 1,106 3.1 -25.1°
Enters shadow 19:55:10 26° 30° (NNE) 1,234 3.1 -25.3°
